ISS DEB (53772 NORAD) Tracking and Keplerian Element Data

This shows tracking and keplerian element data for the satellite.

Feedback or suggestion? Click here.




ElementValue
Catalog53772
NameISS DEB
Epoch Orbit1175
Epoch Day324.89190979
Epoch Year2022
RAAN277.7203
Inclination51.6397
Eccentricity0.0008612
Argument of Perigee106.5558
Mean Anonmoly253.6382
Mean Motion15.59794549
Decay Rate0.00065255
L11 53772U 98067UK 22324.89190979 .00065255 00000+0 79652-3 0 9993
L22 53772 51.6397 277.7203 0008612 106.5558 253.6382 15.59794549 11753



Live tracking and technical data element details for ISS DEB (NORAD 53772). ISS DEB can be tracked NOW for your location showing map with azimuth and elevation plus other details from your city location.







IsCatalogInMostPopularTable: catalog: 53772, numindb: 44
Update: records affected: 1



GetName: 53772 ISS DEB

Hit Count: updated at: Thu, 08 Dec 2022 09:11:54 GMT